Location: Corralito
(10.2667°N, 66.9500°W)
Time: 23:47:45
(UTC+00:00)

YAOGAN 3 - Pass Details

Date: 11 December 2023
Orbit: 615 x 616 km, 97.9° (Epoch: 03 March)

Event Time Altitude Azimuth Distance (km) Brightness Sun altitude
Rises 00:07:20 0° 193° (SSW) 2,873 8.4 -28.4°
Reaches altitude 10° 00:09:52 10° 207° (SSW) 1,968 7.7 -29.0°
Maximum altitude 00:13:16 23° 260° (W) 1,306 6.8 -29.8°
Drops below altitude 10° 00:16:40 10° 313° (NW) 1,967 7.4 -30.6°
Sets 00:19:13 0° 328° (NNW) 2,872 8.1 -31.2°
